TimeEDT,TemperatureF,Dew PointF,Humidity,Sea Level PressureIn,VisibilityMPH,Wind Direction,Wind SpeedMPH,Gust SpeedMPH,PrecipitationIn,Events,Conditions,WindDirDegrees,DateUTC
12:15 AM,55.8,40.5,56,30.05,10.0,NE,5.8,-,N/A,,Overcast,40,2014-04-07 04:15:00
12:35 AM,55.8,41.2,58,30.04,10.0,NE,8.1,-,N/A,,Overcast,50,2014-04-07 04:35:00
12:55 AM,55.6,41.7,60,30.03,10.0,NE,6.9,-,N/A,,Overcast,50,2014-04-07 04:55:00
1:15 AM,55.6,41.9,60,30.03,10.0,NE,6.9,-,N/A,,Overcast,50,2014-04-07 05:15:00
1:35 AM,55.6,42.4,61,30.02,10.0,NE,9.2,-,N/A,,Overcast,50,2014-04-07 05:35:00
1:55 AM,55.6,43.0,63,30.01,10.0,NE,8.1,-,N/A,,Overcast,50,2014-04-07 05:55:00
2:15 AM,55.4,43.3,64,30.00,10.0,NE,6.9,-,N/A,,Overcast,50,2014-04-07 06:15:00
2:35 AM,55.4,44.2,66,29.99,10.0,NE,8.1,-,N/A,,Overcast,50,2014-04-07 06:35:00
2:55 AM,55.4,44.6,67,29.99,10.0,NE,6.9,-,N/A,,Overcast,50,2014-04-07 06:55:00
3:15 AM,55.6,45.1,68,29.98,10.0,NE,5.8,-,N/A,,Overcast,40,2014-04-07 07:15:00
3:35 AM,55.4,45.5,69,29.97,10.0,NE,5.8,-,N/A,,Overcast,40,2014-04-07 07:35:00
3:55 AM,55.4,45.7,70,29.96,10.0,NE,4.6,-,N/A,,Overcast,40,2014-04-07 07:55:00
4:15 AM,55.4,46.2,71,29.95,10.0,NE,5.8,-,N/A,,Overcast,40,2014-04-07 08:15:00
4:35 AM,55.4,46.6,72,29.94,10.0,NE,4.6,-,N/A,,Overcast,40,2014-04-07 08:35:00
4:55 AM,55.4,47.3,74,29.94,10.0,ENE,4.6,-,N/A,,Overcast,60,2014-04-07 08:55:00
5:15 AM,55.8,47.8,75,29.94,10.0,Calm,Calm,-,N/A,,Overcast,0,2014-04-07 09:15:00
5:35 AM,56.1,48.2,75,29.94,10.0,Calm,Calm,-,N/A,,Overcast,0,2014-04-07 09:35:00
5:55 AM,56.3,48.6,75,29.95,10.0,Calm,Calm,-,N/A,,Overcast,0,2014-04-07 09:55:00
6:15 AM,56.3,48.7,76,29.95,10.0,Calm,Calm,-,N/A,,Overcast,0,2014-04-07 10:15:00
6:35 AM,56.3,49.1,77,29.96,10.0,Calm,Calm,-,N/A,,Overcast,0,2014-04-07 10:35:00
6:55 AM,56.3,49.5,78,29.95,10.0,Calm,Calm,-,N/A,,Overcast,0,2014-04-07 10:55:00
7:15 AM,56.3,49.8,79,29.95,10.0,Calm,Calm,-,N/A,,Overcast,0,2014-04-07 11:15:00
7:35 AM,56.3,50.2,80,29.93,10.0,ENE,5.8,-,N/A,,Overcast,70,2014-04-07 11:35:00
8:15 AM,56.8,50.9,80,29.92,10.0,ENE,4.6,-,N/A,,Scattered Clouds,70,2014-04-07 12:15:00
8:35 AM,57.4,51.8,82,29.93,10.0,Calm,Calm,-,N/A,,Scattered Clouds,0,2014-04-07 12:35:00
8:55 AM,58.3,52.9,82,29.93,10.0,East,3.5,-,N/A,,Scattered Clouds,80,2014-04-07 12:55:00
9:15 AM,59.0,53.4,82,29.92,10.0,East,3.5,-,N/A,,Clear,80,2014-04-07 13:15:00
9:35 AM,60.1,54.5,82,29.92,10.0,Calm,Calm,-,N/A,,Scattered Clouds,0,2014-04-07 13:35:00
9:55 AM,61.0,54.9,80,29.92,10.0,Calm,Calm,-,N/A,,Mostly Cloudy,0,2014-04-07 13:55:00
10:15 AM,62.4,56.1,80,29.92,10.0,East,3.5,-,N/A,,Overcast,100,2014-04-07 14:15:00
10:35 AM,64.2,57.9,80,29.92,10.0,Calm,Calm,-,N/A,,Mostly Cloudy,0,2014-04-07 14:35:00
10:55 AM,66.9,60.3,79,29.92,10.0,South,5.8,-,N/A,,Mostly Cloudy,170,2014-04-07 14:55:00
11:15 AM,67.5,61.0,80,29.91,10.0,South,6.9,-,N/A,,Mostly Cloudy,170,2014-04-07 15:15:00
11:55 AM,70.3,63.5,79,29.90,10.0,South,9.2,-,N/A,,Mostly Cloudy,190,2014-04-07 15:55:00
12:15 PM,72.7,64.6,76,29.89,10.0,South,10.4,-,N/A,,Scattered Clouds,170,2014-04-07 16:15:00
12:35 PM,74.7,65.1,72,29.90,10.0,SSW,11.5,-,N/A,,Scattered Clouds,210,2014-04-07 16:35:00
12:55 PM,77.2,63.1,62,29.89,10.0,SSW,11.5,19.6,N/A,,Scattered Clouds,200,2014-04-07 16:55:00
1:15 PM,77.4,62.8,61,29.89,10.0,SSW,9.2,-,N/A,,Mostly Cloudy,210,2014-04-07 17:15:00
1:35 PM,76.6,62.2,61,29.88,10.0,SSW,9.2,-,N/A,,Mostly Cloudy,210,2014-04-07 17:35:00
1:55 PM,76.6,62.6,62,29.88,10.0,SW,6.9,-,N/A,,Mostly Cloudy,230,2014-04-07 17:55:00
2:15 PM,77.2,63.0,61,29.88,10.0,SW,3.5,-,N/A,,Scattered Clouds,230,2014-04-07 18:15:00
2:35 PM,77.0,63.1,62,29.87,10.0,West,3.5,-,N/A,,Scattered Clouds,260,2014-04-07 18:35:00
2:55 PM,68.2,59.2,73,29.86,7.0,NW,5.8,-,N/A,Rain,Rain,320,2014-04-07 18:55:00
3:15 PM,64.9,59.0,81,29.88,7.0,WNW,3.5,-,N/A,,Mostly Cloudy,300,2014-04-07 19:15:00
3:35 PM,63.7,57.4,80,29.87,7.0,NW,4.6,-,N/A,Rain,Light Rain,310,2014-04-07 19:35:00
3:55 PM,63.5,56.5,78,29.85,7.0,Calm,Calm,-,N/A,,Scattered Clouds,0,2014-04-07 19:55:00
4:15 PM,64.6,57.4,77,29.85,7.0,Calm,Calm,-,N/A,,Mostly Cloudy,0,2014-04-07 20:15:00
4:35 PM,65.3,57.9,77,29.83,7.0,Calm,Calm,-,N/A,,Overcast,0,2014-04-07 20:35:00
4:55 PM,65.5,58.6,79,29.83,7.0,Calm,Calm,-,N/A,Rain,Rain,0,2014-04-07 20:55:00
5:15 PM,66.2,58.8,77,29.83,10.0,Calm,Calm,-,N/A,,Overcast,0,2014-04-07 21:15:00
5:35 PM,66.4,59.0,77,29.83,10.0,Calm,Calm,-,N/A,,Overcast,0,2014-04-07 21:35:00
5:55 PM,66.7,59.5,78,29.87,10.0,WSW,5.8,-,N/A,,Overcast,240,2014-04-07 21:55:00
6:15 PM,63.7,60.8,90,29.81,4.0,ENE,8.1,-,0.05,Rain,Rain,60,2014-04-07 22:15:00
6:35 PM,63.5,61.2,92,29.85,4.0,Calm,Calm,-,0.06,,Scattered Clouds,0,2014-04-07 22:35:00
6:55 PM,63.5,60.6,90,29.85,7.0,Calm,Calm,-,0.06,,Mostly Cloudy,0,2014-04-07 22:55:00
7:15 PM,63.1,61.2,93,29.86,4.0,South,3.5,-,0.01,Rain,Light Rain,170,2014-04-07 23:15:00
7:35 PM,62.8,61.2,94,29.85,4.0,Calm,Calm,-,0.03,Rain,Light Rain,0,2014-04-07 23:35:00
7:55 PM,62.8,61.0,94,29.86,4.0,SSW,4.6,-,0.05,Rain,Rain,210,2014-04-07 23:55:00
8:15 PM,62.6,60.8,94,29.83,5.0,ESE,3.5,-,0.02,Rain,Rain,120,2014-04-08 00:15:00
8:35 PM,62.2,60.8,95,29.81,5.0,Calm,Calm,-,0.04,Rain,Light Rain,0,2014-04-08 00:35:00
8:55 PM,61.9,60.4,95,29.81,5.0,South,3.5,-,0.04,,Drizzle,180,2014-04-08 00:55:00
9:15 PM,61.9,60.3,94,29.80,7.0,SSE,3.5,-,N/A,,Light Drizzle,150,2014-04-08 01:15:00
9:35 PM,61.9,60.3,94,29.80,7.0,SSE,3.5,-,N/A,,Clear,160,2014-04-08 01:35:00
10:15 PM,62.2,60.8,95,29.76,7.0,SE,8.1,-,N/A,,Light Drizzle,130,2014-04-08 02:15:00
10:35 PM,62.8,61.0,94,29.76,7.0,SE,6.9,-,N/A,,Clear,140,2014-04-08 02:35:00
10:55 PM,63.5,61.7,94,29.76,10.0,SSE,6.9,-,N/A,,Clear,150,2014-04-08 02:55:00
11:15 PM,63.9,62.1,94,29.75,7.0,SE,6.9,-,N/A,,Clear,140,2014-04-08 03:15:00
11:35 PM,64.6,62.2,92,29.74,10.0,SSE,5.8,-,N/A,,Scattered Clouds,150,2014-04-08 03:35:00
11:55 PM,65.1,63.0,93,29.74,10.0,SSE,6.9,-,N/A,,Scattered Clouds,150,2014-04-08 03:55:00